Time,TemperatureF,DewpointF,PressureIn,WindDirection,WindDirectionDegrees,WindSpeedMPH,WindSpeedGustMPH,Humidity,HourlyPrecipIn,Conditions,Clouds,dailyrainin,SoftwareType,DateUTC
2014-01-24 00:00:00,25.0,-99.9,-100.00,West,263,39.0,47.0,-999,-99.99,,,-99.99,,2014-01-24 07:00:00,
2014-01-24 00:52:00,25.0,-99.9,-100.00,West,263,39.0,47.0,-999,-99.99,,,-99.99,,2014-01-24 07:52:00,
2014-01-24 01:53:00,27.0,-99.9,-100.00,West,266,50.0,50.0,-999,-99.99,,,-99.99,,2014-01-24 08:53:00,
2014-01-24 02:12:00,27.0,-99.9,-100.00,West,268,43.0,53.0,-999,-99.99,,,-99.99,,2014-01-24 09:12:00,
2014-01-24 02:22:00,28.0,-99.9,-100.00,West,268,50.0,50.0,-999,-99.99,,,-99.99,,2014-01-24 09:22:00,
2014-01-24 02:43:00,28.0,-99.9,-100.00,WSW,256,36.0,52.0,-999,-99.99,,,-99.99,,2014-01-24 09:43:00,
2014-01-24 02:53:00,28.0,-99.9,-100.00,West,265,45.0,52.0,-999,-99.99,,,-99.99,,2014-01-24 09:53:00,
2014-01-24 03:13:00,28.0,-99.9,-100.00,West,269,40.0,55.0,-999,-99.99,,,-99.99,,2014-01-24 10:13:00,
2014-01-24 03:23:00,28.0,-99.9,-100.00,West,274,42.0,52.0,-999,-99.99,,,-99.99,,2014-01-24 10:23:00,
2014-01-24 03:42:00,27.0,-99.9,-100.00,West,265,35.0,49.0,-999,-99.99,,,-99.99,,2014-01-24 10:42:00,
2014-01-24 03:52:00,28.0,-99.9,-100.00,West,267,39.0,44.0,-999,-99.99,,,-99.99,,2014-01-24 10:52:00,
2014-01-24 04:12:00,28.0,-99.9,-100.00,West,274,46.0,55.0,-999,-99.99,,,-99.99,,2014-01-24 11:12:00,
2014-01-24 04:22:00,28.0,-99.9,-100.00,West,268,45.0,63.0,-999,-99.99,,,-99.99,,2014-01-24 11:22:00,
2014-01-24 04:42:00,28.0,-99.9,-100.00,West,265,48.0,54.0,-999,-99.99,,,-99.99,,2014-01-24 11:42:00,
2014-01-24 04:53:00,28.0,-99.9,-100.00,West,272,37.0,55.0,-999,-99.99,,,-99.99,,2014-01-24 11:53:00,
2014-01-24 05:12:00,27.0,-99.9,-100.00,West,268,53.0,55.0,-999,-99.99,,,-99.99,,2014-01-24 12:12:00,
2014-01-24 05:22:00,27.0,-99.9,-100.00,West,265,42.0,56.0,-999,-99.99,,,-99.99,,2014-01-24 12:22:00,
2014-01-24 05:42:00,27.0,-99.9,-100.00,West,270,35.0,52.0,-999,-99.99,,,-99.99,,2014-01-24 12:42:00,
2014-01-24 05:52:00,27.0,-99.9,-100.00,West,267,35.0,47.0,-999,-99.99,,,-99.99,,2014-01-24 12:52:00,
2014-01-24 06:12:00,27.0,-99.9,-100.00,West,274,39.0,44.0,-999,-99.99,,,-99.99,,2014-01-24 13:12:00,
2014-01-24 06:22:00,27.0,-99.9,-100.00,West,261,41.0,55.0,-999,-99.99,,,-99.99,,2014-01-24 13:22:00,
2014-01-24 06:42:00,28.0,-99.9,-100.00,West,273,43.0,59.0,-999,-99.99,,,-99.99,,2014-01-24 13:42:00,
2014-01-24 06:52:00,28.0,-99.9,-100.00,West,260,54.0,64.0,-999,-99.99,,,-99.99,,2014-01-24 13:52:00,
2014-01-24 07:12:00,30.0,-99.9,-100.00,West,270,52.0,56.0,-999,-99.99,,,-99.99,,2014-01-24 14:12:00,
2014-01-24 07:22:00,28.0,-99.9,-100.00,West,268,50.0,58.0,-999,-99.99,,,-99.99,,2014-01-24 14:22:00,
2014-01-24 07:42:00,28.0,-99.9,-100.00,West,259,44.0,60.0,-999,-99.99,,,-99.99,,2014-01-24 14:42:00,
2014-01-24 07:52:00,28.0,-99.9,-100.00,West,268,42.0,60.0,-999,-99.99,,,-99.99,,2014-01-24 14:52:00,
2014-01-24 08:12:00,28.0,-99.9,-100.00,West,262,41.0,57.0,-999,-99.99,,,-99.99,,2014-01-24 15:12:00,
2014-01-24 08:22:00,28.0,-99.9,-100.00,West,265,47.0,61.0,-999,-99.99,,,-99.99,,2014-01-24 15:22:00,
2014-01-24 08:44:00,28.0,-99.9,-100.00,West,266,52.0,62.0,-999,-99.99,,,-99.99,,2014-01-24 15:44:00,
2014-01-24 08:53:00,30.0,-99.9,-100.00,West,268,60.0,63.0,-999,-99.99,,,-99.99,,2014-01-24 15:53:00,
2014-01-24 09:13:00,30.0,-99.9,-100.00,West,271,56.0,62.0,-999,-99.99,,,-99.99,,2014-01-24 16:13:00,
2014-01-24 09:23:00,30.0,-99.9,-100.00,WNW,284,39.0,59.0,-999,-99.99,,,-99.99,,2014-01-24 16:23:00,
2014-01-24 09:42:00,30.0,-99.9,-100.00,West,270,50.0,63.0,-999,-99.99,,,-99.99,,2014-01-24 16:42:00,
2014-01-24 09:53:00,34.0,-99.9,-100.00,West,268,43.0,58.0,-999,-99.99,,,-99.99,,2014-01-24 16:53:00,
2014-01-24 10:12:00,34.0,-99.9,-100.00,West,269,54.0,60.0,-999,-99.99,,,-99.99,,2014-01-24 17:12:00,
2014-01-24 10:23:00,36.0,-99.9,-100.00,West,277,45.0,62.0,-999,-99.99,,,-99.99,,2014-01-24 17:23:00,
2014-01-24 10:42:00,36.0,-99.9,-100.00,West,273,61.0,65.0,-999,-99.99,,,-99.99,,2014-01-24 17:42:00,
2014-01-24 10:53:00,37.0,-99.9,-100.00,West,273,49.0,62.0,-999,-99.99,,,-99.99,,2014-01-24 17:53:00,
2014-01-24 11:12:00,39.0,-99.9,-100.00,West,270,49.0,63.0,-999,-99.99,,,-99.99,,2014-01-24 18:12:00,
2014-01-24 11:22:00,41.0,-99.9,-100.00,West,277,44.0,66.0,-999,-99.99,,,-99.99,,2014-01-24 18:22:00,
2014-01-24 11:43:00,41.0,-99.9,-100.00,West,275,44.0,59.0,-999,-99.99,,,-99.99,,2014-01-24 18:43:00,
2014-01-24 11:52:00,43.0,-99.9,-100.00,West,278,46.0,62.0,-999,-99.99,,,-99.99,,2014-01-24 18:52:00,
2014-01-24 12:12:00,43.0,-99.9,-100.00,West,276,44.0,57.0,-999,-99.99,,,-99.99,,2014-01-24 19:12:00,
2014-01-24 12:22:00,43.0,-99.9,-100.00,West,274,38.0,56.0,-999,-99.99,,,-99.99,,2014-01-24 19:22:00,
2014-01-24 12:42:00,43.0,-99.9,-100.00,WNW,289,41.0,55.0,-999,-99.99,,,-99.99,,2014-01-24 19:42:00,
2014-01-24 12:52:00,45.0,-99.9,-100.00,WNW,293,27.0,52.0,-999,-99.99,,,-99.99,,2014-01-24 19:52:00,
2014-01-24 13:11:00,45.0,-99.9,-100.00,WNW,283,37.0,46.0,-999,-99.99,,,-99.99,,2014-01-24 20:11:00,
2014-01-24 13:22:00,45.0,-99.9,-100.00,West,277,47.0,60.0,-999,-99.99,,,-99.99,,2014-01-24 20:22:00,
2014-01-24 13:42:00,45.0,-99.9,-100.00,West,281,45.0,55.0,-999,-99.99,,,-99.99,,2014-01-24 20:42:00,
2014-01-24 13:52:00,45.0,-99.9,-100.00,West,278,43.0,62.0,-999,-99.99,,,-99.99,,2014-01-24 20:52:00,
2014-01-24 14:12:00,46.0,-99.9,-100.00,West,273,44.0,57.0,-999,-99.99,,,-99.99,,2014-01-24 21:12:00,
2014-01-24 14:22:00,46.0,-99.9,-100.00,WNW,290,28.0,51.0,-999,-99.99,,,-99.99,,2014-01-24 21:22:00,
2014-01-24 14:43:00,46.0,-99.9,-100.00,WNW,284,41.0,49.0,-999,-99.99,,,-99.99,,2014-01-24 21:43:00,
2014-01-24 14:54:00,46.0,-99.9,-100.00,WNW,284,34.0,42.0,-999,-99.99,,,-99.99,,2014-01-24 21:54:00,
2014-01-24 15:03:00,46.0,-99.9,-100.00,WNW,284,34.0,42.0,-999,-99.99,,,-99.99,,2014-01-24 22:03:00,
2014-01-24 15:13:00,46.0,-99.9,-100.00,WNW,284,34.0,42.0,-999,-99.99,,,-99.99,,2014-01-24 22:13:00,
2014-01-24 15:43:00,45.0,-99.9,-100.00,West,271,36.0,45.0,-999,-99.99,,,-99.99,,2014-01-24 22:43:00,
2014-01-24 15:53:00,46.0,-99.9,-100.00,West,280,53.0,53.0,-999,-99.99,,,-99.99,,2014-01-24 22:53:00,
2014-01-24 16:11:00,45.0,-99.9,-100.00,West,271,49.0,54.0,-999,-99.99,,,-99.99,,2014-01-24 23:11:00,
2014-01-24 16:22:00,45.0,-99.9,-100.00,WNW,287,34.0,54.0,-999,-99.99,,,-99.99,,2014-01-24 23:22:00,
2014-01-24 16:42:00,45.0,-99.9,-100.00,West,273,34.0,49.0,-999,-99.99,,,-99.99,,2014-01-24 23:42:00,
2014-01-24 16:53:00,45.0,-99.9,-100.00,West,277,39.0,46.0,-999,-99.99,,,-99.99,,2014-01-24 23:53:00,
2014-01-24 17:00:00,39.0,-99.9,-100.00,West,276,39.0,41.0,-999,-99.99,,,-99.99,,2014-01-25 00:00:00,
2014-01-24 17:02:00,45.0,-99.9,-100.00,West,277,39.0,46.0,-999,-99.99,,,-99.99,,2014-01-25 00:02:00,
2014-01-24 17:52:00,39.0,-99.9,-100.00,West,276,39.0,41.0,-999,-99.99,,,-99.99,,2014-01-25 00:52:00,
2014-01-24 18:42:00,37.0,-99.9,-100.00,West,259,41.0,52.0,-999,-99.99,,,-99.99,,2014-01-25 01:42:00,
2014-01-24 18:52:00,37.0,-99.9,-100.00,West,263,35.0,49.0,-999,-99.99,,,-99.99,,2014-01-25 01:52:00,
2014-01-24 19:12:00,37.0,-99.9,-100.00,West,273,36.0,51.0,-999,-99.99,,,-99.99,,2014-01-25 02:12:00,
2014-01-24 19:22:00,37.0,-99.9,-100.00,WSW,255,29.0,46.0,-999,-99.99,,,-99.99,,2014-01-25 02:22:00,
2014-01-24 19:42:00,37.0,-99.9,-100.00,West,271,40.0,50.0,-999,-99.99,,,-99.99,,2014-01-25 02:42:00,
2014-01-24 19:52:00,37.0,-99.9,-100.00,WSW,256,36.0,52.0,-999,-99.99,,,-99.99,,2014-01-25 02:52:00,
2014-01-24 20:00:00,37.0,-99.9,-100.00,WNW,293,28.0,43.0,-999,-99.99,,,-99.99,,2014-01-25 03:00:00,
2014-01-24 20:11:00,37.0,-99.9,-100.00,West,269,36.0,48.0,-999,-99.99,,,-99.99,,2014-01-25 03:11:00,
2014-01-24 20:22:00,37.0,-99.9,-100.00,West,262,36.0,44.0,-999,-99.99,,,-99.99,,2014-01-25 03:22:00,
2014-01-24 20:33:00,37.0,-99.9,-100.00,West,262,36.0,44.0,-999,-99.99,,,-99.99,,2014-01-25 03:33:00,
2014-01-24 20:53:00,37.0,-99.9,-100.00,WNW,293,28.0,43.0,-999,-99.99,,,-99.99,,2014-01-25 03:53:00,
2014-01-24 21:00:00,37.0,-99.9,-100.00,WNW,284,21.0,35.0,-999,-99.99,,,-99.99,,2014-01-25 04:00:00,
2014-01-24 21:53:00,37.0,-99.9,-100.00,WNW,284,21.0,35.0,-999,-99.99,,,-99.99,,2014-01-25 04:53:00,
2014-01-24 22:53:00,37.0,-99.9,-100.00,West,268,46.0,56.0,-999,-99.99,,,-99.99,,2014-01-25 05:53:00,
2014-01-24 23:10:00,36.0,-99.9,-100.00,West,259,38.0,42.0,-999,-99.99,,,-99.99,,2014-01-25 06:10:00,
2014-01-24 23:12:00,37.0,-99.9,-100.00,West,263,46.0,58.0,-999,-99.99,,,-99.99,,2014-01-25 06:12:00,
2014-01-24 23:22:00,37.0,-99.9,-100.00,West,260,34.0,50.0,-999,-99.99,,,-99.99,,2014-01-25 06:22:00,
2014-01-24 23:42:00,36.0,-99.9,-100.00,West,274,42.0,50.0,-999,-99.99,,,-99.99,,2014-01-25 06:42:00,
2014-01-24 23:53:00,36.0,-99.9,-100.00,West,259,38.0,42.0,-999,-99.99,,,-99.99,,2014-01-25 06:53:00,